When you browse on this site, cookies collect data to enhance your experience and personalize the content and advertising you see.
Visit our Privacy Policy to learn more. By continuing to use the site, you agree to this use of cookies and data.
EN

Hourly Weather Godzhur

Today, 25 September, Friday

Time Temperature Precipitation Wind Pressure Humidity
00:00 +17°C° 0 mm 3 mps 757 mmHg 36%
01:00 +16°C° 0 mm 2 mps 757 mmHg 42%
02:00 +16°C° 0 mm 2 mps 757 mmHg 48%
03:00 +15°C° 0 mm 2 mps 757 mmHg 50%
04:00 +14°C° 0 mm 3 mps 758 mmHg 46%
05:00 +14°C° 0 mm 3 mps 758 mmHg 41%
06:00 +14°C° 0 mm 3 mps 758 mmHg 37%
07:00 +17°C° 0 mm 4 mps 758 mmHg 33%
08:00 +19°C° 0 mm 5 mps 757 mmHg 29%
09:00 +21°C° 0 mm 5 mps 757 mmHg 25%
10:00 +22°C° 0 mm 6 mps 757 mmHg 24%
11:00 +24°C° 0 mm 6 mps 757 mmHg 24%
12:00 +26°C° 0 mm 7 mps 757 mmHg 24%
13:00 +27°C° 0 mm 7 mps 757 mmHg 24%
14:00 +27°C° 0 mm 7 mps 756 mmHg 23%
15:00 +28°C° 0 mm 7 mps 756 mmHg 23%
16:00 +26°C° 0 mm 7 mps 756 mmHg 26%
17:00 +24°C° 0 mm 6 mps 756 mmHg 28%
18:00 +23°C° 0 mm 5 mps 756 mmHg 31%
19:00 +22°C° 0 mm 5 mps 756 mmHg 30%
20:00 +22°C° 0 mm 5 mps 756 mmHg 30%
21:00 +21°C° 0 mm 5 mps 756 mmHg 29%
22:00 +20°C° 0 mm 5 mps 756 mmHg 30%
23:00 +19°C° 0 mm 5 mps 756 mmHg 31%

Tomorrow, 26 September, Saturday

Time Temperature Precipitation Wind Pressure Humidity
00:00 +19°C° 0 mm 5 mps 756 mmHg 32%
01:00 +19°C° 0 mm 5 mps 756 mmHg 34%
02:00 +17°C° 0 mm 5 mps 756 mmHg 37%
03:00 +17°C° 0 mm 5 mps 755 mmHg 39%
04:00 +17°C° 0 mm 5 mps 755 mmHg 43%
05:00 +16°C° 0 mm 5 mps 755 mmHg 46%
06:00 +15°C° 0 mm 5 mps 755 mmHg 50%
07:00 +17°C° 0 mm 6 mps 755 mmHg 48%
08:00 +20°C° 0 mm 6 mps 756 mmHg 46%
09:00 +21°C° 0 mm 7 mps 756 mmHg 44%
10:00 +23°C° 0 mm 8 mps 756 mmHg 38%
11:00 +26°C° 0 mm 9 mps 756 mmHg 33%
12:00 +28°C° 0 mm 10 mps 756 mmHg 27%
13:00 +28°C° 0 mm 10 mps 756 mmHg 26%
14:00 +28°C° 0 mm 10 mps 756 mmHg 25%
15:00 +28°C° 0 mm 10 mps 756 mmHg 24%
16:00 +26°C° 0 mm 9 mps 756 mmHg 27%
17:00 +23°C° 0 mm 8 mps 756 mmHg 29%
18:00 +21°C° 0 mm 8 mps 757 mmHg 32%
19:00 +20°C° 0 mm 8 mps 757 mmHg 35%
20:00 +18°C° 0 mm 7 mps 757 mmHg 39%
21:00 +17°C° 0 mm 7 mps 757 mmHg 42%
22:00 +16°C° 0 mm 7 mps 757 mmHg 43%
23:00 +16°C° 0 mm 7 mps 757 mmHg 44%

Day after tomorrow, 27 September, Sunday

Time Temperature Precipitation Wind Pressure Humidity
00:00 +15°C° 0 mm 7 mps 757 mmHg 44%
01:00 +15°C° 0 mm 6 mps 757 mmHg 45%
02:00 +15°C° 0 mm 6 mps 757 mmHg 46%
03:00 +15°C° 0 mm 6 mps 757 mmHg 47%
04:00 +15°C° 0 mm 6 mps 758 mmHg 50%
05:00 +14°C° 0 mm 6 mps 758 mmHg 52%
06:00 +14°C° 0 mm 7 mps 758 mmHg 55%
07:00 +16°C° 0 mm 7 mps 758 mmHg 50%
08:00 +17°C° 0 mm 8 mps 759 mmHg 45%
09:00 +19°C° 0 mm 9 mps 759 mmHg 41%
10:00 +21°C° 0 mm 9 mps 759 mmHg 36%
11:00 +22°C° 0 mm 10 mps 759 mmHg 32%
12:00 +23°C° 0 mm 10 mps 759 mmHg 27%
13:00 +24°C° 0 mm 10 mps 759 mmHg 27%
14:00 +24°C° 0 mm 10 mps 759 mmHg 27%
15:00 +24°C° 0 mm 10 mps 759 mmHg 26%
16:00 +23°C° 0 mm 9 mps 759 mmHg 29%
17:00 +21°C° 0 mm 8 mps 760 mmHg 32%
18:00 +20°C° 0 mm 7 mps 760 mmHg 35%
19:00 +18°C° 0 mm 7 mps 761 mmHg 38%
20:00 +16°C° 0 mm 7 mps 761 mmHg 41%
21:00 +15°C° 0 mm 7 mps 761 mmHg 44%
22:00 +14°C° 0 mm 7 mps 761 mmHg 48%
23:00 +14°C° 0 mm 6 mps 762 mmHg 51%

28 September, Monday

Time Temperature Precipitation Wind Pressure Humidity
00:00 +13°C° 0 mm 6 mps 762 mmHg 55%
01:00 +11°C° 0 mm 6 mps 762 mmHg 56%
02:00 +11°C° 0 mm 6 mps 762 mmHg 58%
03:00 +12°C° 0 mm 5 mps 762 mmHg 60%
04:00 +12°C° 0 mm 5 mps 762 mmHg 62%
05:00 +12°C° 0 mm 5 mps 762 mmHg 63%
06:00 +12°C° 0 mm 5 mps 762 mmHg 65%
07:00 +14°C° 0 mm 6 mps 762 mmHg 58%
08:00 +16°C° 0 mm 7 mps 762 mmHg 51%
09:00 +18°C° 0 mm 8 mps 762 mmHg 43%
10:00 +21°C° 0 mm 8 mps 762 mmHg 38%
11:00 +22°C° 0 mm 9 mps 762 mmHg 33%
12:00 +24°C° 0 mm 9 mps 762 mmHg 29%
13:00 +24°C° 0 mm 9 mps 762 mmHg 28%
14:00 +24°C° 0 mm 9 mps 762 mmHg 28%
15:00 +24°C° 0 mm 9 mps 762 mmHg 27%
16:00 +23°C° 0 mm 8 mps 762 mmHg 29%
17:00 +21°C° 0 mm 8 mps 762 mmHg 32%
18:00 +18°C° 0 mm 7 mps 762 mmHg 34%
19:00 +17°C° 0 mm 7 mps 762 mmHg 39%
20:00 +16°C° 0 mm 7 mps 763 mmHg 45%
21:00 +14°C° 0 mm 7 mps 763 mmHg 50%
22:00 +14°C° 0 mm 6 mps 763 mmHg 55%
23:00 +13°C° 0 mm 6 mps 763 mmHg 60%

29 September, Tuesday

Time Temperature Precipitation Wind Pressure Humidity
00:00 +12°C° 0 mm 5 mps 762 mmHg 64%
01:00 +11°C° 0 mm 6 mps 762 mmHg 66%
02:00 +10°C° 0 mm 6 mps 762 mmHg 68%
03:00 +10°C° 0 mm 6 mps 762 mmHg 70%
04:00 +10°C° 0 mm 6 mps 762 mmHg 71%
05:00 +9°C° 0 mm 6 mps 762 mmHg 71%
06:00 +9°C° 0 mm 5 mps 762 mmHg 72%
07:00 +12°C° 0 mm 7 mps 762 mmHg 61%
08:00 +15°C° 0 mm 8 mps 761 mmHg 51%
09:00 +18°C° 0 mm 9 mps 761 mmHg 41%
10:00 +21°C° 0 mm 9 mps 761 mmHg 36%
11:00 +22°C° 0 mm 10 mps 760 mmHg 31%
12:00 +24°C° 0 mm 10 mps 760 mmHg 27%
13:00 +24°C° 0 mm 10 mps 760 mmHg 26%
14:00 +24°C° 0 mm 10 mps 759 mmHg 26%
15:00 +24°C° 0 mm 10 mps 759 mmHg 25%
16:00 +23°C° 0 mm 10 mps 759 mmHg 29%
17:00 +21°C° 0 mm 9 mps 759 mmHg 33%
18:00 +19°C° 0 mm 9 mps 758 mmHg 36%
19:00 +18°C° 0 mm 9 mps 758 mmHg 38%
20:00 +17°C° 0 mm 9 mps 758 mmHg 39%
21:00 +16°C° 0 mm 9 mps 758 mmHg 41%
22:00 +15°C° 0 mm 9 mps 758 mmHg 42%
23:00 +15°C° 0 mm 9 mps 758 mmHg 44%

30 September, Wednesday

Time Temperature Precipitation Wind Pressure Humidity
00:00 +13°C° 0 mm 8 mps 758 mmHg 45%
01:00 +13°C° 0 mm 8 mps 757 mmHg 48%
02:00 +13°C° 0 mm 8 mps 757 mmHg 50%
03:00 +13°C° 0 mm 8 mps 756 mmHg 52%
04:00 +13°C° 0 mm 8 mps 756 mmHg 53%
05:00 +13°C° 0 mm 8 mps 756 mmHg 54%
06:00 +13°C° 0 mm 8 mps 756 mmHg 55%
07:00 +15°C° 0 mm 9 mps 756 mmHg 50%
08:00 +17°C° 0 mm 10 mps 756 mmHg 45%
09:00 +19°C° 0 mm 11 mps 756 mmHg 40%
10:00 +21°C° 0 mm 11 mps 756 mmHg 35%
11:00 +22°C° 0 mm 12 mps 755 mmHg 31%
12:00 +24°C° 0 mm 12 mps 755 mmHg 26%
13:00 +24°C° 0 mm 12 mps 755 mmHg 26%
14:00 +24°C° 0 mm 12 mps 755 mmHg 25%
15:00 +23°C° 0 mm 12 mps 755 mmHg 24%
16:00 +22°C° 0 mm 11 mps 755 mmHg 27%
17:00 +19°C° 0 mm 10 mps 755 mmHg 30%
18:00 +18°C° 0 mm 9 mps 755 mmHg 34%
19:00 +17°C° 0 mm 8 mps 756 mmHg 36%
20:00 +16°C° 0 mm 7 mps 756 mmHg 38%
21:00 +15°C° 0 mm 7 mps 757 mmHg 41%
22:00 +15°C° 0 mm 7 mps 757 mmHg 43%
23:00 +14°C° 0 mm 7 mps 757 mmHg 45%
Show more